Regional Weather Roundup
Issued by NWS

Home | Current Version | Previous Version | Graphics & Text | Print | Product List | Glossary On
Versions: 1 2 3 4 5 6 7 8 9 10 11 12 13 14 15 16 17 18 19 20 21 22 23 24 25 26 27 28 29 30 31 32 33 34 35 36 37 38 39 40 41 42 43 44 45 46 47 48 49 50
357
ASUS43 KBIS 210602
RWRND

NORTH DAKOTA REGIONAL WEATHER ROUNDUP
NATIONAL WEATHER SERVICE BISMARCK ND
1200 AM CST SAT JAN 21 2017

NOTE: "FAIR" INDICATES FEW OR NO CLOUDS BELOW 12,000 FEET WITH NO
SIGNIFICANT WEATHER AND/OR OBSTRUCTIONS TO VISIBILITY.


NDZ001>003-009>011-017-210700-
NORTHWEST NORTH DAKOTA

CITY           SKY/WX    TMP DP  RH WIND       PRES   REMARKS
WILLISTON      FAIR      23  21  92 E6        29.32R WCI  16
6HR MIN TEMP:  23; 6HR MAX TEMP:  29;

MINOT          FOG       29  28  96 CALM      29.33R VSB 1
MINOT AFB      FOG       26  25  96 CALM      29.32F VSB 1
$$

NDZ018>021-031>035-040>046-210700-
SOUTHWEST NORTH DAKOTA

CITY           SKY/WX    TMP DP  RH WIND       PRES   REMARKS
BISMARCK       CLOUDY    32  30  92 W6        29.33F FOG
6HR MIN TEMP:  31; 6HR MAX TEMP:  32;

DICKINSON      CLOUDY    26  23  88 W9        29.28S WCI  17
GARRISON         N/A     24  22  91 W5        29.32S WCI  18
6HR MIN TEMP:  24; 6HR MAX TEMP:  26;

HETTINGER ARPT CLOUDY    29  25  85 NW14      29.31S WCI  18
$$

NDZ004>008-012>016-024-026-027-054-210700-
NORTHEAST NORTH DAKOTA

CITY           SKY/WX    TMP DP  RH WIND       PRES   REMARKS
GRAND FORKS    CLOUDY    36  32  85 SE12      29.43S
GRND FRKS AFB  CLOUDY    34  34  99 SE13      29.43R
DEVILS LAKE    FOG       33  32  96 SE9       29.38S VSB 1/2
$$

NDZ022-023-025-028>030-036>039-047>053-210700-
SOUTHEAST NORTH DAKOTA

CITY           SKY/WX    TMP DP  RH WIND       PRES   REMARKS
FARGO          CLOUDY    39  35  86 SE13      29.42S
6HR MIN TEMP:  38; 6HR MAX TEMP:  39;

JAMESTOWN      FOG       33  33 100 SE9       29.35S VSB 1/4
$$





USA.gov is the U.S. government's official web portal to all federal, state and local government web resources and services.